sat.trackr.live / text

‹ back to catalog

KUIPER-00293

NORAD 68593 · 2026-072W

PAYLOAD ACTIVE UNKNOWN

§ Identity

Operator
Country
US
Launch date
2026-04-04
Launch site
AFETR
Launch vehicle
Mass (kg)
RCS (m²)

External: N2YO · Heavens-Above · Gunter

§ Orbital elements

Epoch: 2026-09-20T00:15:44.807328Z

Period
97.30 min
Inclination
51.8982°
Eccentricity
0.0001779
Mean motion
14.79931262 rev/d
Perigee alt
628.3 km
Apogee alt
630.8 km
Semi-major
7,007.7 km
B*
2.8178e-4
RAAN
128.8149°
Arg perigee
59.6780°
Mean anomaly
300.4358°
Rev number
2,526

§ Raw data

KUIPER-002931 68593U 26072W   26263.01093527  .00001927  00000+0  28178-3 0  99912 68593  51.8982 128.8149 0001779  59.6780 300.4358 14.79931262 25260

JSON: /api/v1/satellites/68593 · /tle

For live sub-satellite position, see the globe view (requires WebGL).

§ Visibility from observer

Set your observer location to see the next 7 days of passes ≥ 10°. The values pass through the URL so the page stays shareable.

No JS? Fill the form by hand. The geolocation button needs JavaScript.